Vertical_Velocity
2 2 3 5 3 0 -1 -2 -1 -1 0 1 0 -1 -1 -3 -4 -2 -4 -5 -2 -2
3 3 1 0 0 -0 2 1 1 1 -0 -1 -1 -1 -1 -1 -2 0 -2 -2 -1 1
0 -0 -0 -0 1 1 -1 -0 0 -0 -0 -1 -0 -0 -1 -2 -3 -3 -6 -5 -2 -3
0 0 -0 -1 -2 -1 -0 1 0 0 -1 -1 -1 -1 -1 -1 -3 -1 -1 -5 -0 -1
-2 -1 -2 -1 -1 -1 -1 -1 -1 -1 -0 -1 -1 -1 -0 -1 -1 0 -1 -2 -1 -1
-2 -2 -1 0 -0 -1 -2 -1 -0 -0 -1 -2 -2 -2 -1 1 -1 -0 -1 -2 -2 -1
0 -1 -1 -1 0 1 1 -0 -1 -0 0 0 -1 -1 -1 -2 -0 -1 0 -2 0 1
1 1 1 2 2 0 1 0 -1 -2 -3 -3 -4 -3 -1 -1 -0 -0 -1 -0 0 1
2 2 1 0 -0 -2 -3 -4 -4 -5 -1 -3 -5 -1 1 0 -0 -2 -2 -0 -2 0
-2 -2 -2 -3 -4 -3 -2 -2 -4 -3 1 0 -2 -3 -0 -3 -0 0 -1 -1 -2 1
-0 0 2 2 -0 -1 1 0 -1 -2 -1 -0 -8 -1 -3 -3 -3 1 2 0 -1 2
2 -0 -1 -1 -2 -3 0 -2 -0 -4 -4 -3 1 -1 -2 -4 -0 3 5 -0 -0 -2
2 1 -0 0 -1 -3 0 3 -3 2 -5 1 -0 1 -2 -3 1 4 2 8 2 -1
-0 -0 -1 -1 -2 0 -1 -2 -3 3 3 2 -3 5 -1 -2 -6 -6 -7 2 7 1
Height
5775 5774 5773 5771 5769 5767 5765 5762 5758 5755 5752 5748 5744 5740 5735 5731 5727 5723 5719 5714 5710 5706
5767 5765 5763 5762 5760 5757 5754 5751 5748 5744 5740 5736 5731 5727 5722 5717 5712 5708 5704 5699 5695 5691
5758 5756 5754 5752 5749 5746 5743 5739 5735 5731 5726 5722 5717 5713 5708 5703 5698 5693 5688 5684 5680 5676
5749 5746 5743 5741 5738 5734 5730 5726 5721 5717 5712 5707 5702 5698 5692 5686 5681 5676 5671 5667 5664 5659
5739 5735 5732 5728 5724 5720 5715 5711 5706 5702 5697 5692 5687 5681 5676 5670 5665 5660 5655 5650 5647 5642
5725 5722 5718 5714 5710 5705 5700 5696 5691 5686 5681 5675 5670 5664 5659 5653 5648 5644 5639 5635 5631 5626
5712 5708 5704 5699 5694 5689 5684 5679 5674 5669 5663 5658 5653 5648 5643 5638 5632 5626 5622 5618 5614 5609
5698 5694 5689 5684 5679 5674 5669 5664 5658 5652 5646 5641 5636 5631 5625 5619 5614 5609 5605 5601 5597 5593
5685 5680 5675 5670 5665 5659 5654 5648 5642 5636 5629 5622 5616 5612 5606 5602 5598 5593 5589 5585 5580 5577
5670 5664 5659 5653 5647 5641 5635 5629 5622 5615 5610 5603 5598 5594 5590 5586 5583 5578 5573 5569 5566 5562
5651 5644 5638 5632 5627 5621 5615 5608 5603 5597 5592 5588 5582 5579 5574 5570 5566 5562 5556 5554 5551 5547
5633 5626 5619 5613 5607 5602 5596 5591 5586 5581 5576 5572 5565 5560 5556 5553 5550 5546 5542 5538 5534 5530
5615 5608 5600 5594 5588 5583 5579 5574 5569 5563 5560 5554 5551 5544 5539 5536 5533 5531 5526 5522 5516 5508
5594 5587 5582 5575 5570 5566 5561 5556 5551 5548 5543 5537 5532 5528 5522 5516 5512 5508 5506 5502 5497 5489